Wind_Speed
29 29 29 29 28 25 24 23 22 21 21 21 21 21 21 22 22 19 18 18 16 15 14 14 13 13 12 11 11 10 10 10 10 10 10 10 11 12 13 13 14 15 16 16
32 31 31 31 30 29 27 24 23 22 22 22 24 24 24 25 24 22 21 21 18 16 16 16 15 14 14 13 13 12 12 12 11 11 11 12 12 13 14 14 15 15 16 17
36 34 33 34 31 30 29 27 26 25 23 23 26 27 27 26 25 25 24 23 22 18 17 16 16 15 15 14 14 14 14 14 13 13 13 13 14 14 14 15 16 17 17 17
40 37 39 33 32 33 33 31 30 29 27 26 26 27 27 27 27 26 25 24 22 20 19 17 17 17 16 15 15 15 15 15 15 15 15 15 16 15 15 16 18 19 19 19
44 42 39 34 32 34 36 36 34 32 31 30 29 29 28 28 28 28 26 25 23 22 21 19 19 18 18 17 17 16 16 16 16 16 17 17 17 16 17 17 18 19 19 20
45 43 40 34 33 34 36 38 37 36 34 33 32 31 30 29 29 28 28 27 26 24 22 21 21 21 20 19 18 18 18 17 17 17 18 18 19 18 18 18 19 19 20 21
46 44 41 36 34 34 37 38 37 36 36 35 34 33 32 31 30 30 29 28 27 26 24 22 22 22 21 21 20 20 19 19 19 19 19 19 19 19 19 20 20 20 21 21
45 44 41 37 36 37 38 37 37 36 36 35 34 34 33 33 32 31 29 29 28 27 25 24 24 24 24 23 22 22 22 21 22 21 21 21 21 21 20 21 21 21 21 21
44 43 40 37 37 38 38 39 38 37 37 37 36 36 35 34 33 32 31 31 31 29 28 28 27 26 25 25 25 25 24 24 24 23 23 23 22 22 22 23 23 22 23 23
42 42 40 37 36 37 39 39 39 38 38 38 38 38 37 37 36 35 34 33 33 32 32 31 30 29 28 27 27 27 27 26 25 25 24 24 23 23 24 24 24 23 23 23
42 40 39 37 36 36 37 38 39 39 40 40 39 39 38 38 38 37 36 36 35 34 33 33 31 30 30 29 29 30 29 28 27 27 26 26 25 25 25 25 25 25 25 25
41 40 39 37 36 36 36 37 38 38 39 39 39 39 38 38 38 39 38 37 35 34 34 33 33 32 32 31 32 31 31 30 29 28 28 27 27 27 27 27 27 26 26 26
41 40 38 37 36 36 36 36 37 38 36 36 35 36 37 37 37 37 37 36 35 35 35 35 34 34 34 34 33 33 32 31 30 30 29 29 28 28 28 28 28 28 27 26
41 40 39 38 38 38 37 36 35 35 34 35 36 37 38 38 38 37 36 36 35 35 35 35 35 35 35 34 34 33 33 32 31 31 31 30 30 29 29 28 27 27 26 26
41 41 40 40 39 37 36 35 35 35 34 35 36 36 37 37 37 37 37 37 36 36 37 36 36 35 35 34 34 34 33 32 31 31 31 31 31 30 29 28 28 27 26 26
41 39 39 39 39 37 35 34 35 35 35 36 37 37 37 37 37 37 37 37 36 36 36 36 35 35 35 34 33 33 32 32 31 30 30 29 29 29 28 28 28 27 27 26
38 38 36 37 37 36 36 35 35 35 35 36 36 36 36 36 36 36 36 36 35 35 34 34 34 33 33 32 31 31 31 30 29 29 28 28 27 27 27 27 27 27 26 25
37 37 37 36 35 34 33 33 33 33 34 35 35 35 35 34 34 34 34 34 34 33 33 32 31 31 30 30 29 28 28 27 27 26 26 26 26 26 25 25 25 25 24 24
34 34 35 35 34 34 32 32 31 31 31 32 32 32 32 32 32 32 32 32 31 30 29 29 28 27 26 27 26 26 26 26 25 25 24 24 24 24 24 23 22 22 23 23
30 31 32 32 32 32 31 30 30 29 29 30 30 30 30 30 30 29 29 28 28 27 26 25 24 24 23 23 23 23 22 22 22 22 22 22 22 22 21 21 21 22 24 24
26 27 29 30 29 29 29 29 28 27 27 28 28 28 27 27 27 26 26 24 24 23 22 21 21 20 20 20 20 19 19 18 18 18 19 19 20 20 20 21 22 23 24 25
23 23 24 25 26 26 26 26 26 26 26 26 26 25 24 24 23 23 22 22 20 19 19 19 18 18 18 17 16 15 15 15 15 15 16 16 17 18 19 20 22 23 24 25
19 20 20 21 22 22 23 23 23 22 22 22 22 21 21 20 20 19 19 18 18 17 17 16 16 16 16 15 15 14 15 15 15 15 16 16 17 18 19 20 21 22 23 25
16 17 18 18 19 19 19 19 19 19 19 19 18 18 18 18 17 16 16 16 15 14 14 14 14 14 14 14 15 15 15 15 16 16 17 18 19 20 21 22 23 24 25 26
12 13 14 15 15 15 15 15 15 15 15 15 14 14 14 14 14 14 14 13 12 12 12 12 12 13 13 13 14 14 15 16 17 18 19 20 21 22 23 24 25 26 26 27
8 9 10 11 11 11 11 11 10 10 10 10 10 11 11 11 11 10 10 10 11 11 11 12 12 13 14 15 15 16 18 19 20 20 21 22 23 24 25 26 26 27 28 28
6 7 8 8 9 9 8 8 8 7 8 9 9 9 9 9 9 9 9 10 11 11 12 13 14 15 16 17 18 19 20 21 22 23 24 25 26 27 27 28 28 28 28 28
Wind_Direction
233 229 229 233 236 239 246 252 255 255 253 254 261 269 278 286 292 300 307 312 315 318 319 317 316 313 306 304 302 299 297 296 293 286 282 278 272 270 266 265 265 267 265 263
238 235 232 233 235 237 241 246 249 251 251 252 259 267 274 284 291 295 300 307 307 311 311 311 311 308 303 299 297 295 290 291 293 292 287 282 278 273 269 267 268 270 269 266
239 240 239 235 235 237 241 245 247 249 251 252 255 263 272 279 284 289 295 299 302 303 305 305 305 304 299 294 294 292 287 285 287 289 288 287 285 281 278 274 272 270 269 267
240 243 242 241 237 239 241 243 245 248 252 254 258 263 270 277 283 288 294 296 298 299 299 301 302 301 299 295 294 293 287 285 283 283 284 284 284 282 280 278 275 273 271 269
242 244 246 242 238 238 239 242 244 247 251 256 261 265 270 276 282 287 290 292 294 293 294 296 297 297 297 295 294 292 289 286 284 284 285 283 282 281 280 280 280 276 274 272
242 245 245 242 238 238 239 241 243 247 251 256 262 265 271 276 279 283 284 287 289 289 287 289 292 291 292 293 292 291 290 289 286 286 285 282 281 281 282 281 279 279 279 276
242 245 246 242 240 239 238 241 243 247 251 256 261 265 269 272 274 277 281 283 284 285 283 283 287 290 289 288 288 287 288 289 288 287 286 285 283 281 280 280 279 278 278 277
240 243 244 242 240 239 240 242 245 248 252 256 260 263 266 269 272 274 278 281 283 283 279 280 283 285 285 284 284 284 285 287 287 286 284 283 282 281 280 280 281 280 278 279
239 242 244 243 242 241 241 242 244 247 251 254 257 261 264 268 272 274 277 279 281 280 279 280 281 282 282 282 282 283 283 284 284 284 282 281 280 279 279 279 280 279 279 279
236 239 242 242 241 242 242 243 245 247 250 253 256 258 261 265 270 273 275 277 280 278 279 280 281 281 280 280 282 283 283 283 283 282 281 280 279 279 279 278 278 278 278 277
236 239 241 241 242 242 242 244 246 247 249 252 254 257 260 264 267 269 272 275 277 275 275 277 277 278 278 279 281 282 281 282 281 280 279 279 279 278 277 278 279 278 277 277
236 239 241 241 242 242 244 246 248 249 250 252 255 257 259 262 265 268 271 273 275 274 273 275 277 277 277 277 279 280 280 280 280 279 279 278 277 276 277 276 276 276 275 276
235 238 240 242 243 243 244 248 250 250 251 252 255 257 259 261 264 267 269 271 272 273 274 275 275 275 277 278 277 277 278 278 278 278 277 277 276 276 276 275 274 274 275 276
234 237 240 243 243 245 248 249 249 250 253 255 258 260 262 264 266 268 270 271 271 272 273 274 275 276 277 277 276 276 277 277 277 277 276 276 275 274 273 274 274 273 273 274
236 237 240 243 245 247 249 249 251 253 256 259 259 260 263 265 266 267 269 271 272 272 273 275 276 277 276 277 277 276 276 275 276 275 274 274 274 273 272 271 271 272 273 274
235 238 239 241 244 247 247 249 252 253 256 259 260 262 265 266 266 267 269 271 272 272 274 275 275 275 275 276 275 274 273 273 273 273 273 273 272 271 270 269 270 271 273 272
237 239 240 244 248 249 249 250 252 255 257 260 262 264 265 266 268 269 270 271 272 273 274 274 274 274 273 273 273 272 271 272 272 271 271 270 269 268 268 268 268 269 270 271
239 240 242 244 246 249 251 252 254 257 259 261 262 263 265 268 269 271 272 272 272 272 273 272 272 272 271 271 270 270 269 270 270 269 268 268 267 267 267 267 267 267 267 269
241 242 243 245 247 249 252 255 256 256 258 260 262 264 266 268 270 271 271 272 272 272 272 271 270 270 270 269 268 269 268 267 266 267 266 265 264 263 264 264 263 264 266 268
239 242 243 245 248 248 250 252 255 256 258 260 262 264 266 268 269 269 270 270 270 270 269 268 268 267 266 266 267 267 266 264 263 263 263 262 261 261 263 264 264 265 268 269
238 239 240 243 245 246 248 250 253 255 257 259 262 263 264 266 268 267 268 268 268 268 267 267 266 264 264 264 264 263 262 260 260 260 260 258 259 260 262 264 266 268 271 273
240 240 240 241 243 245 248 250 252 254 256 259 261 262 263 264 264 264 264 264 264 265 265 265 263 261 261 260 258 256 256 257 258 259 260 262 263 265 267 268 270 272 275 277
235 236 237 238 240 244 247 249 251 252 255 257 260 261 260 258 258 259 261 259 258 260 261 260 259 257 254 253 252 254 257 259 261 264 266 268 269 270 271 273 274 275 277 279
230 230 232 234 236 241 244 245 248 250 253 256 257 256 255 253 254 254 253 253 252 253 255 256 253 251 251 253 255 257 260 262 264 266 269 271 273 275 276 277 279 280 281 282
219 221 223 225 229 233 238 242 244 248 249 247 247 248 247 248 249 247 247 248 250 251 249 248 247 250 254 258 261 263 265 268 270 271 273 275 277 278 279 280 282 283 283 283
200 203 207 210 214 216 219 223 227 228 233 235 238 240 240 240 241 239 238 240 244 246 247 250 254 258 262 266 268 270 273 275 277 277 278 279 280 281 282 282 283 284 284 284
168 177 185 188 189 194 201 207 213 222 231 238 240 236 234 236 237 237 240 244 247 253 257 260 263 266 269 270 273 276 279 281 281 281 281 282 283 283 284 285 285 286 287 287
Height
5851 5855 5857 5859 5861 5862 5863 5864 5866 5867 5867 5868 5869 5869 5869 5869 5870 5870 5869 5869 5868 5866 5865 5864 5863 5862 5862 5861 5860 5859 5858 5857 5857 5856 5856 5855 5855 5855 5854 5854 5854 5854 5853 5853
5844 5848 5850 5853 5855 5857 5858 5859 5860 5861 5862 5864 5864 5864 5865 5865 5865 5865 5865 5865 5864 5863 5862 5861 5860 5859 5858 5858 5857 5856 5855 5854 5854 5853 5852 5852 5851 5851 5850 5850 5850 5849 5849 5848
5836 5840 5843 5846 5851 5852 5852 5853 5855 5855 5858 5858 5859 5860 5860 5861 5861 5861 5861 5860 5860 5859 5858 5857 5856 5855 5855 5854 5853 5852 5851 5850 5850 5849 5848 5847 5847 5846 5845 5845 5845 5844 5844 5843
5829 5833 5835 5843 5845 5845 5846 5847 5848 5849 5851 5853 5854 5856 5857 5857 5857 5856 5856 5855 5855 5854 5854 5853 5852 5851 5850 5850 5849 5848 5847 5846 5845 5845 5844 5843 5842 5842 5841 5840 5840 5839 5839 5838
5821 5823 5827 5834 5837 5838 5839 5839 5842 5843 5845 5847 5848 5850 5851 5852 5852 5852 5851 5851 5850 5849 5849 5848 5847 5846 5846 5845 5844 5843 5842 5841 5840 5840 5839 5838 5837 5837 5836 5835 5834 5834 5833 5832
5811 5814 5818 5826 5829 5829 5831 5831 5835 5837 5839 5841 5843 5844 5846 5846 5846 5846 5846 5846 5845 5844 5843 5843 5842 5841 5840 5839 5839 5838 5837 5836 5835 5835 5834 5833 5832 5831 5830 5829 5829 5828 5827 5826
5802 5805 5809 5816 5819 5822 5823 5825 5829 5831 5833 5835 5837 5839 5840 5840 5840 5840 5839 5839 5838 5837 5837 5836 5836 5835 5834 5834 5833 5833 5832 5831 5830 5829 5828 5827 5826 5825 5825 5824 5823 5822 5821 5820
5793 5796 5802 5807 5810 5813 5815 5818 5821 5824 5826 5827 5829 5831 5832 5833 5833 5833 5833 5832 5831 5831 5830 5829 5829 5829 5828 5828 5827 5826 5826 5825 5824 5823 5822 5821 5820 5819 5818 5817 5816 5815 5814 5813
5785 5790 5793 5798 5801 5804 5807 5810 5813 5816 5818 5820 5821 5822 5824 5824 5825 5825 5825 5825 5824 5824 5823 5822 5822 5821 5821 5820 5820 5819 5819 5818 5817 5816 5815 5814 5813 5812 5811 5810 5810 5809 5807 5806
5775 5778 5783 5788 5792 5795 5798 5801 5804 5807 5809 5811 5813 5814 5815 5816 5817 5817 5817 5816 5816 5816 5815 5815 5814 5814 5813 5813 5812 5812 5811 5810 5810 5809 5808 5807 5806 5805 5804 5803 5802 5801 5800 5799
5766 5771 5775 5779 5783 5786 5789 5792 5795 5798 5800 5801 5804 5805 5806 5807 5807 5808 5808 5808 5807 5806 5806 5807 5806 5806 5805 5804 5804 5803 5803 5802 5802 5801 5800 5799 5798 5798 5797 5796 5795 5794 5793 5792
5758 5763 5767 5771 5775 5778 5780 5783 5785 5788 5790 5792 5794 5796 5797 5797 5798 5798 5799 5798 5798 5798 5798 5797 5797 5797 5796 5796 5795 5795 5794 5793 5793 5792 5792 5791 5790 5789 5788 5788 5787 5786 5785 5785
5751 5755 5759 5763 5766 5769 5772 5774 5776 5778 5780 5782 5784 5785 5786 5788 5789 5789 5789 5789 5789 5789 5789 5788 5788 5788 5787 5786 5786 5785 5785 5784 5784 5783 5783 5782 5782 5781 5780 5779 5779 5778 5777 5776
5742 5746 5750 5754 5757 5760 5763 5765 5767 5768 5771 5772 5774 5775 5776 5778 5779 5779 5780 5779 5779 5779 5778 5778 5778 5778 5777 5776 5776 5775 5775 5775 5774 5774 5773 5773 5772 5772 5771 5770 5770 5769 5769 5768
5733 5738 5742 5745 5748 5751 5754 5755 5758 5760 5761 5763 5764 5766 5767 5768 5769 5769 5769 5769 5769 5769 5769 5768 5767 5767 5767 5766 5766 5766 5765 5765 5764 5764 5763 5763 5762 5762 5762 5762 5761 5761 5760 5760
5724 5728 5732 5735 5739 5742 5745 5747 5749 5750 5752 5753 5755 5757 5757 5758 5758 5759 5759 5759 5759 5759 5759 5758 5757 5757 5756 5756 5756 5756 5755 5755 5755 5754 5754 5753 5753 5752 5752 5752 5752 5752 5752 5751
5715 5719 5723 5726 5729 5732 5735 5737 5739 5740 5742 5743 5745 5746 5747 5748 5748 5748 5748 5749 5749 5748 5748 5748 5747 5747 5747 5746 5746 5746 5746 5745 5745 5745 5745 5744 5744 5744 5744 5744 5744 5743 5743 5743
5707 5711 5715 5717 5720 5723 5726 5728 5729 5731 5732 5734 5735 5737 5737 5738 5738 5738 5739 5739 5739 5739 5738 5738 5738 5737 5737 5737 5737 5737 5737 5736 5736 5736 5736 5735 5735 5735 5735 5735 5735 5735 5734 5734
5700 5703 5706 5709 5712 5715 5717 5720 5721 5723 5724 5725 5726 5727 5728 5729 5729 5729 5729 5729 5729 5729 5729 5728 5728 5728 5728 5728 5728 5728 5728 5728 5728 5727 5727 5727 5727 5727 5727 5727 5727 5727 5727 5726
5692 5696 5699 5702 5704 5707 5710 5711 5713 5715 5716 5717 5718 5719 5720 5720 5721 5721 5721 5721 5720 5720 5720 5720 5720 5720 5720 5720 5720 5720 5720 5720 5720 5720 5720 5720 5720 5720 5720 5720 5720 5720 5720 5719
5686 5689 5691 5694 5697 5700 5702 5704 5705 5707 5708 5709 5710 5711 5712 5712 5712 5712 5712 5713 5713 5712 5712 5712 5712 5713 5713 5713 5713 5713 5713 5713 5713 5713 5713 5713 5713 5713 5713 5713 5713 5712 5712 5711
5679 5682 5685 5687 5690 5692 5695 5696 5698 5699 5701 5702 5703 5703 5704 5704 5704 5705 5705 5706 5706 5706 5706 5706 5706 5706 5707 5707 5707 5707 5707 5707 5708 5708 5708 5708 5707 5707 5707 5706 5706 5705 5704 5703
5674 5676 5679 5681 5684 5686 5688 5690 5691 5693 5694 5695 5696 5696 5697 5697 5698 5699 5699 5700 5700 5700 5700 5700 5701 5701 5701 5702 5702 5702 5703 5703 5703 5703 5703 5702 5702 5702 5701 5700 5699 5698 5697 5696
5669 5671 5674 5676 5679 5681 5683 5684 5685 5687 5688 5689 5690 5690 5691 5692 5692 5693 5694 5694 5694 5695 5695 5696 5696 5696 5697 5697 5698 5698 5698 5698 5698 5697 5697 5697 5696 5695 5695 5694 5692 5691 5690 5688
5666 5668 5670 5672 5674 5676 5678 5679 5681 5682 5683 5684 5685 5685 5686 5687 5688 5688 5689 5689 5690 5690 5691 5691 5692 5692 5693 5693 5693 5693 5693 5693 5692 5692 5691 5690 5689 5689 5687 5686 5685 5683 5681 5680
5664 5665 5667 5669 5671 5673 5675 5677 5678 5679 5680 5681 5681 5682 5683 5683 5684 5684 5685 5686 5686 5687 5687 5688 5688 5688 5688 5688 5688 5688 5687 5687 5686 5685 5684 5683 5682 5681 5680 5678 5676 5675 5673 5671
5664 5665 5667 5668 5670 5672 5674 5675 5676 5677 5678 5678 5679 5680 5680 5681 5681 5682 5682 5683 5683 5684 5684 5684 5684 5684 5683 5683 5683 5682 5681 5680 5679 5678 5677 5675 5674 5672 5671 5669 5667 5665 5664 5662